TimeCST,TemperatureF,Dew PointF,Humidity,Sea Level PressureIn,VisibilityMPH,Wind Direction,Wind SpeedMPH,Gust SpeedMPH,PrecipitationIn,Events,Conditions,WindDirDegrees,DateUTC
12:53 AM,35.1,27.0,72,30.35,10.0,NE,8.1,-,N/A,,Overcast,50,2013-02-09 06:53:00
1:53 AM,36.0,28.0,73,30.35,10.0,ENE,8.1,-,N/A,,Overcast,70,2013-02-09 07:53:00
2:53 AM,35.1,27.0,72,30.36,10.0,NE,4.6,-,N/A,,Overcast,50,2013-02-09 08:53:00
4:53 AM,35.1,27.0,72,30.35,10.0,NE,10.4,-,N/A,,Overcast,50,2013-02-09 10:53:00
5:53 AM,34.0,27.0,75,30.36,10.0,ENE,8.1,-,N/A,,Overcast,70,2013-02-09 11:53:00
6:53 AM,34.0,27.0,75,30.36,10.0,East,4.6,-,N/A,,Overcast,90,2013-02-09 12:53:00
7:27 AM,33.8,26.6,75,30.35,10.0,East,6.9,-,N/A,,Overcast,80,2013-02-09 13:27:00
7:53 AM,33.1,26.1,75,30.37,10.0,ESE,5.8,-,N/A,,Overcast,110,2013-02-09 13:53:00
8:53 AM,34.0,27.0,75,30.36,10.0,ESE,6.9,-,N/A,,Overcast,110,2013-02-09 14:53:00
9:53 AM,35.1,28.0,76,30.37,10.0,ENE,5.8,-,N/A,,Overcast,70,2013-02-09 15:53:00
10:53 AM,36.0,28.0,73,30.36,10.0,ESE,6.9,-,N/A,,Overcast,110,2013-02-09 16:53:00
11:32 AM,35.6,28.4,75,30.32,10.0,NE,5.8,-,N/A,,Overcast,40,2013-02-09 17:32:00
11:53 AM,37.0,28.9,73,30.32,10.0,East,5.8,-,N/A,,Mostly Cloudy,100,2013-02-09 17:53:00
12:15 PM,37.4,30.2,75,30.29,10.0,SE,8.1,-,N/A,,Partly Cloudy,130,2013-02-09 18:15:00
12:53 PM,37.9,30.0,73,30.28,10.0,SE,8.1,-,N/A,,Scattered Clouds,130,2013-02-09 18:53:00
1:04 PM,37.4,30.2,75,30.26,10.0,ESE,6.9,-,N/A,,Mostly Cloudy,110,2013-02-09 19:04:00
1:12 PM,37.4,30.2,75,30.26,10.0,Calm,Calm,-,N/A,,Scattered Clouds,0,2013-02-09 19:12:00
1:19 PM,39.2,30.2,70,30.25,10.0,Variable,3.5,-,N/A,,Mostly Cloudy,0,2013-02-09 19:19:00
1:28 PM,39.2,30.2,70,30.24,10.0,East,6.9,-,N/A,,Scattered Clouds,90,2013-02-09 19:28:00
1:53 PM,39.0,30.9,73,30.24,10.0,East,5.8,-,N/A,,Clear,90,2013-02-09 19:53:00
2:53 PM,42.1,33.1,70,30.22,10.0,East,4.6,-,N/A,,Clear,90,2013-02-09 20:53:00
3:53 PM,41.0,32.0,70,30.19,10.0,East,4.6,-,N/A,,Clear,100,2013-02-09 21:53:00
4:53 PM,42.1,33.1,70,30.17,9.0,East,3.5,-,N/A,,Clear,90,2013-02-09 22:53:00
5:53 PM,42.1,34.0,73,30.15,9.0,Calm,Calm,-,N/A,,Mostly Cloudy,0,2013-02-09 23:53:00
6:53 PM,42.1,35.1,76,30.13,9.0,NE,3.5,-,N/A,,Partly Cloudy,50,2013-02-10 00:53:00
7:53 PM,42.1,36.0,79,30.14,7.0,NNW,4.6,-,N/A,,Overcast,330,2013-02-10 01:53:00
8:53 PM,42.1,36.0,79,30.12,8.0,Calm,Calm,-,0.00,,Overcast,0,2013-02-10 02:53:00
9:53 PM,42.1,37.0,82,30.09,8.0,NE,4.6,-,0.00,,Overcast,40,2013-02-10 03:53:00
10:53 PM,43.0,36.0,76,30.06,9.0,NE,4.6,-,N/A,,Overcast,50,2013-02-10 04:53:00
11:53 PM,43.0,37.0,80,30.04,8.0,ENE,5.8,-,N/A,,Overcast,60,2013-02-10 05:53:00